Fallon, NV

1:20 AM PDT on August 29, 2016 (GMT -0700)
Fallon Naval Air Station

Weather History for KNFL - October, 2013

Change the Weather History Date:

Tuesday, October 8, 2013

  Actual Average Record
Temperature  
Mean Temperature 52 °F -  
Max Temperature 64 °F 71 °F 87 °F (1965)
Min Temperature 39 °F 35 °F 22 °F (1968)
Degree Days  
Heating Degree Days 14    
Growing Degree Days 2 (Base 50)    
Moisture  
Dew Point 22 °F    
Average Humidity 31    
Maximum Humidity 49    
Minimum Humidity 20    
Precipitation  
Precipitation 0.00 in - - ()
Sea Level Pressure  
Sea Level Pressure 29.83 in    
Wind  
Wind Speed 6 mph (NNW)    
Max Wind Speed 25 mph    
Max Gust Speed 16 mph    
Visibility 10 miles    
Events      
Averages and records for this station are not official NWS values.
T = Trace of Precipitation, MM = Missing Value Source: NWS Daily Summary

Daily Weather History Graph

Daily Weather History Graph

Search for Another Location

Airport or City:

Trip Planner

Search our weather history database for the weather conditions in past years. The results will help you decide how hot, cold, wet, or windy it might be!

Date:

Astronomy

Oct. 08, 2013 Rise Set
Actual Time 6:58 AM PDT 6:25 PM PDT
Civil Twilight 6:31 AM PDT 6:52 PM PDT
Nautical Twilight 6:00 AM PDT 7:23 PM PDT
Astronomical Twilight 5:28 AM PDT 7:54 PM PDT
Moon 10:56 AM PDT (10/8) 9:07 PM PDT (10/8)
Length of Visible Light 12h 21m
Length of Day
11h 27m
Waxing Crescent, 17% of the Moon is Illuminated
Oct 8
Waxing Crescent
Oct 11
First Quarter
Oct 18
Full
Oct 26
Last Quarter
Nov 3
New

Hourly Weather History & Observations

Time (PDT) Temp. Windchill Dew Point Humidity Pressure Visibility Wind Dir Wind Speed Gust Speed Precip Events Conditions
12:56 AM 55.9 °F - 21.0 °F 26% 29.87 in 10.0 mi North 4.6 mph - N/A   Clear
1:56 AM 50.0 °F - 19.0 °F 29% 29.88 in 10.0 mi North - - N/A   Clear
2:56 AM 46.9 °F - 19.9 °F 34% 29.88 in 10.0 mi North 25.3 mph - N/A   Clear
3:56 AM 46.0 °F 43.9 °F 21.0 °F 37% 29.88 in 10.0 mi WNW 4.6 mph - N/A   Clear
4:56 AM 39.9 °F 37.8 °F 18.0 °F 41% 29.90 in 10.0 mi East 3.5 mph - N/A   Clear
5:56 AM 39.9 °F 37.8 °F 19.0 °F 43% 29.92 in 10.0 mi WNW 3.5 mph - N/A   Clear
6:17 AM 42.8 °F 39.3 °F 21.2 °F 42% 30.00 in 10.0 mi WNW 5.8 mph - N/A   Partly Cloudy
6:56 AM 42.1 °F 38.4 °F 24.1 °F 49% 29.92 in 10.0 mi WNW 5.8 mph - N/A   Partly Cloudy
7:56 AM 42.1 °F - 21.9 °F 45% 29.93 in 10.0 mi Calm Calm - N/A   Partly Cloudy
8:56 AM 50.0 °F - 27.0 °F 41% 29.94 in 10.0 mi NW 5.8 mph - N/A   Partly Cloudy
9:56 AM 54.0 °F - 27.0 °F 35% 29.93 in 10.0 mi North 5.8 mph - N/A   Partly Cloudy
10:56 AM 57.9 °F - 27.0 °F 31% 29.92 in 10.0 mi NW 5.8 mph - N/A   Partly Cloudy
11:56 AM 60.1 °F - 27.0 °F 28% 29.89 in 10.0 mi Calm Calm - N/A   Partly Cloudy
12:56 PM 61.0 °F - 26.1 °F 26% 29.86 in 10.0 mi Calm Calm - N/A   Partly Cloudy
1:56 PM 62.1 °F - 24.1 °F 23% 29.82 in 10.0 mi Calm Calm - N/A   Scattered Clouds
2:56 PM 64.9 °F - 23.0 °F 20% 29.79 in 10.0 mi NNW 5.8 mph - N/A   Mostly Cloudy
3:56 PM 63.0 °F - 23.0 °F 22% 29.76 in 10.0 mi NNE 10.4 mph - N/A   Mostly Cloudy
4:56 PM 62.1 °F - 21.0 °F 21% 29.74 in 10.0 mi NNE 8.1 mph - N/A   Mostly Cloudy
5:56 PM 60.1 °F - 19.9 °F 21% 29.74 in 10.0 mi NNE 4.6 mph - N/A   Mostly Cloudy
6:56 PM 57.0 °F - 19.9 °F 24% 29.72 in 10.0 mi NNE 3.5 mph - N/A   Mostly Cloudy
7:56 PM 55.0 °F - 19.0 °F 24% 29.71 in 10.0 mi Calm Calm - N/A   Mostly Cloudy
8:56 PM 55.0 °F - 19.0 °F 24% 29.70 in 10.0 mi WNW 8.1 mph - N/A   Mostly Cloudy
9:56 PM 51.1 °F - 18.0 °F 27% 29.69 in 10.0 mi North 6.9 mph - N/A   Mostly Cloudy
10:56 PM 48.0 °F - 19.0 °F 32% 29.68 in 10.0 mi North 5.8 mph - N/A   Mostly Cloudy
11:56 PM 46.9 °F - 19.0 °F 33% 29.66 in 10.0 mi NNW 4.6 mph 16.1 mph N/A   Mostly Cloudy